KI0MQ Weather Reports


time (UTC)temp
F
wind
direction
speed
knots
gust
knots
rain 1hr
in
rain 24hr
in
rain mn
in
humidity
%
barometer
mb
20260831065504 76 0 0.0 0.0 0.00 0.00 0.00 93 1008.9
20260831064507 76 0 0.0 0.0 0.00 0.00 0.00 92 1008.7
20260831064003 76 0 0.0 0.0 0.00 0.00 0.00 92 1008.8
20260831063503 76 0 0.0 0.0 0.00 0.00 0.00 92 1008.7
20260831063007 76 0 0.0 0.0 0.00 0.00 0.00 92 1008.8
20260831062504 76 0 0.0 0.0 0.00 0.00 0.00 91 1008.9
20260831062003 77 0 0.0 0.0 0.00 0.00 0.00 91 1008.8
20260831061507 77 0 0.0 0.0 0.00 0.00 0.00 91 1008.8
20260831061004 77 0 0.0 0.0 0.00 0.00 0.00 91 1008.8
20260831060007 77 0 0.0 0.0 0.00 0.00 0.00 90 1008.6
20260831055503 77 0 0.0 0.0 0.00 0.00 0.00 90 1008.6
20260831055004 78 0 0.0 0.0 0.00 0.00 0.00 90 1008.5
20260831054507 78 0 0.0 0.0 0.00 0.00 0.00 90 1008.6
20260831054003 78 0 0.0 0.0 0.00 0.00 0.00 89 1008.5
20260831053504 78 0 0.0 0.0 0.00 0.00 0.00 89 1008.3
20260831053007 78 0 0.0 0.0 0.00 0.00 0.00 89 1008.3
20260831052504 78 0 0.0 0.0 0.00 0.00 0.00 89 1008.4
20260831052004 78 0 0.0 0.0 0.00 0.00 0.00 89 1008.4
20260831051507 79 0 0.0 0.0 0.00 0.00 0.00 88 1008.3
20260831051004 79 0 0.0 0.0 0.00 0.00 0.00 88 1008.3
20260831050504 79 6 0.0 1.7 0.00 0.00 0.00 88 1008.3
20260831050009 79 5 0.9 2.6 0.00 0.00 0.00 88 1008.2
20260831045503 79 338 0.9 2.6 0.00 0.00 0.00 88 1008.2
20260831044508 78 0 0.0 0.0 0.00 0.00 0.00 90 1008.2
20260831044003 78 0 0.0 0.0 0.00 0.00 0.00 90 1008.2
20260831043504 78 0 0.0 0.0 0.00 0.00 0.00 90 1008.1
20260831043008 78 0 0.0 0.0 0.00 0.00 0.00 89 1008.0
20260831042504 78 0 0.0 0.0 0.00 0.00 0.00 89 1008.0
20260831042003 79 0 0.0 0.0 0.00 0.00 0.00 88 1008.1
20260831041003 79 0 0.0 0.0 0.00 0.00 0.00 88 1008.2
20260831040504 79 0 0.0 0.0 0.00 0.00 0.00 88 1008.2
20260831040007 79 0 0.0 0.0 0.00 0.00 0.00 88 1008.3
20260831035504 79 0 0.0 0.0 0.00 0.00 0.00 88 1008.4
20260831035004 79 0 0.0 0.0 0.00 0.00 0.00 88 1008.5
20260831034507 79 0 0.0 0.0 0.00 0.00 0.00 88 1008.5
20260831034003 79 0 0.0 0.0 0.00 0.00 0.00 87 1008.5
20260831033504 80 0 0.0 0.0 0.00 0.00 0.00 87 1008.6
20260831032504 80 0 0.0 0.0 0.00 0.00 0.00 86 1008.6
20260831032003 80 0 0.0 0.0 0.00 0.00 0.00 86 1008.6
20260831031507 80 0 0.0 0.0 0.00 0.00 0.00 86 1008.6
20260831031004 80 0 0.0 0.0 0.00 0.00 0.00 87 1008.6
20260831030007 80 0 0.0 0.0 0.00 0.00 0.00 86 1008.7
20260831025004 80 0 0.0 0.0 0.00 0.00 0.00 85 1008.7
20260831024507 80 0 0.0 0.0 0.00 0.00 0.00 84 1008.6
20260831023503 81 0 0.0 0.0 0.00 0.00 0.00 84 1008.6
20260831023008 81 0 0.0 0.0 0.00 0.00 0.00 84 1008.6
20260831022503 81 0 0.0 0.0 0.00 0.00 0.00 84 1008.5
20260831021508 82 0 0.0 0.0 0.00 0.00 0.00 83 1008.6
20260831021003 82 0 0.0 0.0 0.00 0.00 0.00 83 1008.5
20260831020503 82 0 0.0 0.0 0.00 0.00 0.00 83 1008.4
20260831020008 82 0 0.0 0.0 0.00 0.00 0.00 82 1008.4
20260831015503 82 0 0.0 0.0 0.00 0.00 0.00 82 1008.3
20260831015003 82 0 0.0 0.0 0.00 0.00 0.00 82 1008.3
20260831014508 83 0 0.0 0.0 0.00 0.00 0.00 81 1008.2
20260831014003 83 0 0.0 0.0 0.00 0.00 0.00 80 1008.1
20260831013503 83 0 0.0 0.0 0.00 0.00 0.00 80 1008.1
20260831013007 84 0 0.0 0.0 0.00 0.00 0.00 79 1008.1
20260831012503 84 0 0.0 0.0 0.00 0.00 0.00 79 1008.0
20260831012004 84 0 0.0 0.0 0.00 0.00 0.00 78 1008.0
20260831011507 85 0 0.0 0.0 0.00 0.00 0.00 77 1008.0
20260831011003 85 0 0.0 0.0 0.00 0.00 0.00 76 1008.0
20260831010503 86 0 0.0 0.0 0.00 0.00 0.00 76 1008.0
20260831010008 86 0 0.0 0.0 0.00 0.00 0.00 75 1007.9
20260831005003 87 0 0.0 0.0 0.00 0.00 0.00 74 1007.9
20260831004508 88 0 0.0 0.0 0.00 0.00 0.00 73 1007.9
20260831004003 88 0 0.0 0.0 0.00 0.00 0.00 72 1007.9
20260831003503 89 0 0.0 0.0 0.00 0.00 0.00 72 1007.9
20260831003008 89 0 0.0 0.0 0.00 0.00 0.00 71 1007.9
20260831002503 89 0 0.0 0.0 0.00 0.00 0.00 69 1008.0
20260831002003 89 0 0.0 0.0 0.00 0.00 0.00 69 1008.0
20260831001508 90 0 0.0 0.0 0.00 0.00 0.00 68 1008.0
20260831000503 90 0 0.0 0.0 0.00 0.00 0.00 69 1008.0
20260830235504 90 0 0.0 0.0 0.00 0.00 0.00 67 1008.0
20260830234507 90 0 0.0 0.0 0.00 0.00 0.00 67 1007.9
20260830234003 90 171 0.0 1.7 0.00 0.00 0.00 67 1007.9
20260830233504 90 178 0.0 1.7 0.00 0.00 0.00 66 1007.9
20260830233007 90 174 0.0 1.7 0.00 0.00 0.00 65 1007.9
20260830232504 91 169 0.0 1.7 0.00 0.00 0.00 65 1007.9
20260830232003 91 165 0.0 1.7 0.00 0.00 0.00 66 1007.9
20260830231003 91 177 0.9 4.3 0.00 0.00 0.00 65 1007.9
20260830230504 91 183 0.9 4.3 0.00 0.00 0.00 64 1007.8
20260830230007 91 173 0.9 3.5 0.00 0.00 0.00 64 1007.8
20260830225503 91 176 1.7 4.3 0.00 0.00 0.00 65 1007.8
20260830225003 91 187 0.9 4.3 0.00 0.00 0.00 64 1007.8
20260830224508 91 194 0.9 4.3 0.00 0.00 0.00 64 1007.8
20260830224003 91 198 0.9 4.3 0.00 0.00 0.00 65 1007.8
20260830223503 91 198 1.7 4.3 0.00 0.00 0.00 64 1007.8
20260830223008 90 194 1.7 4.3 0.00 0.00 0.00 64 1007.9
20260830222503 90 193 1.7 5.2 0.00 0.00 0.00 63 1007.8
20260830222003 91 198 1.7 5.2 0.00 0.00 0.00 64 1007.8
20260830221508 91 188 1.7 4.3 0.00 0.00 0.00 63 1007.8
20260830221004 91 178 1.7 4.3 0.00 0.00 0.00 62 1007.7
20260830220503 91 187 1.7 4.3 0.00 0.00 0.00 62 1007.8
20260830220007 91 192 1.7 4.3 0.00 0.00 0.00 62 1007.8
20260830215503 91 194 1.7 4.3 0.00 0.00 0.00 63 1007.7
20260830215003 90 195 1.7 4.3 0.00 0.00 0.00 63 1007.7
20260830214508 90 182 1.7 5.2 0.00 0.00 0.00 63 1007.7
20260830214003 90 184 2.6 7.8 0.00 0.00 0.00 61 1007.7
20260830213503 90 190 1.7 7.8 0.00 0.00 0.00 61 1007.5
20260830212503 90 188 1.7 5.2 0.00 0.00 0.00 62 1007.6
20260830211508 90 195 0.9 3.5 0.00 0.00 0.00 63 1007.7
20260830211003 90 189 0.9 5.2 0.00 0.00 0.00 61 1007.7
20260830210503 90 184 0.9 5.2 0.00 0.00 0.00 62 1007.8
20260830205503 89 178 1.7 3.5 0.00 0.00 0.00 62 1008.1
20260830205003 89 178 1.7 7.0 0.00 0.00 0.00 60 1008.2
20260830204508 89 201 1.7 7.0 0.00 0.00 0.00 62 1008.2
20260830204003 89 211 1.7 5.2 0.00 0.00 0.00 59 1008.2
20260830203503 89 217 0.9 6.1 0.00 0.00 0.00 61 1008.2
20260830202503 89 202 0.9 4.3 0.00 0.00 0.00 62 1008.4
20260830202003 88 211 0.9 5.2 0.00 0.00 0.00 60 1008.4
20260830201507 89 213 0.9 5.2 0.00 0.00 0.00 61 1008.3
20260830201004 89 202 0.0 0.9 0.00 0.00 0.00 62 1008.3
20260830200503 89 200 0.9 5.2 0.00 0.00 0.00 63 1007.9
20260830200008 89 192 1.7 5.2 0.00 0.00 0.00 61 1008.2
20260830195503 89 194 1.7 5.2 0.00 0.00 0.00 61 1008.2
20260830195003 88 193 1.7 5.2 0.00 0.00 0.00 63 1008.3
20260830194508 88 183 1.7 5.2 0.00 0.00 0.00 71 1008.6
20260830194003 87 185 1.7 5.2 0.00 0.00 0.00 68 1008.5
20260830193503 87 185 0.9 5.2 0.00 0.00 0.00 69 1008.8
20260830193008 87 189 1.7 5.2 0.00 0.00 0.00 69 1008.8
20260830192003 87 184 0.9 3.5 0.00 0.00 0.00 64 1008.8
20260830191508 87 211 0.9 3.5 0.00 0.00 0.00 63 1008.8
20260830191003 87 219 1.7 5.2 0.00 0.03 0.00 63 1008.7
20260830190503 88 195 1.7 6.1 0.00 0.06 0.00 62 1008.7
20260830190009 88 183 1.7 6.1 0.00 0.06 0.00 62 1008.5
20260830185003 88 187 1.7 4.3 0.00 0.06 0.00 62 1008.3
20260830184508 88 192 1.7 5.2 0.00 0.06 0.00 61 1008.3
20260830184003 87 200 1.7 5.2 0.00 0.06 0.00 63 1008.5
20260830183503 87 190 1.7 5.2 0.00 0.06 0.00 64 1008.4
20260830183009 88 183 1.7 5.2 0.00 0.06 0.00 63 1008.3
20260830182504 87 189 0.9 3.5 0.00 0.06 0.00 64 1008.3
20260830182003 87 199 1.7 5.2 0.00 0.06 0.00 63 1008.5
20260830181508 87 208 1.7 5.2 0.00 0.06 0.00 62 1008.7
20260830181003 88 192 2.6 8.7 0.00 0.06 0.00 61 1008.8
20260830180503 88 188 2.6 8.7 0.00 0.06 0.00 62 1008.9
20260830180008 88 195 1.7 5.2 0.00 0.06 0.00 63 1009.0
20260830175504 87 197 0.9 5.2 0.00 0.06 0.00 64 1009.0
20260830175003 87 191 2.6 6.1 0.00 0.06 0.00 64 1009.1
20260830174508 87 190 2.6 7.0 0.00 0.06 0.00 62 1009.1
20260830173009 87 179 3.5 9.6 0.00 0.06 0.00 64 1009.1
20260830172503 86 188 3.5 9.6 0.00 0.06 0.00 64 1009.1
20260830171508 86 195 2.6 7.0 0.00 0.06 0.00 64 1009.0
20260830171003 86 193 2.6 7.0 0.00 0.06 0.00 65 1009.1
20260830170008 85 183 2.6 6.1 0.00 0.06 0.00 65 1009.1
20260830165504 85 182 2.6 6.1 0.00 0.06 0.00 64 1009.1
20260830165003 85 184 3.5 6.1 0.00 0.06 0.00 65 1009.0
20260830164508 84 189 2.6 6.1 0.00 0.06 0.00 65 1009.0
20260830164003 84 191 1.7 6.1 0.00 0.06 0.00 65 1009.0
20260830163008 84 186 2.6 6.1 0.00 0.06 0.00 64 1009.0
20260830162503 85 186 2.6 6.1 0.00 0.06 0.00 64 1009.0
20260830161004 84 191 2.6 6.1 0.00 0.06 0.00 65 1008.9
20260830160503 84 188 1.7 5.2 0.00 0.06 0.00 66 1009.0
20260830160008 84 190 2.6 6.1 0.00 0.06 0.00 68 1008.8
20260830155504 84 191 2.6 6.1 0.00 0.06 0.00 67 1008.7
20260830155003 83 188 2.6 6.1 0.00 0.06 0.00 66 1008.7
20260830154508 83 187 1.7 6.1 0.00 0.06 0.00 68 1008.8
20260830154003 83 189 1.7 5.2 0.00 0.06 0.00 69 1008.9
20260830152503 82 183 2.6 7.8 0.00 0.06 0.00 70 1009.0
20260830152003 82 188 2.6 7.8 0.00 0.06 0.00 68 1008.8
20260830151508 82 184 1.7 5.2 0.00 0.06 0.00 73 1008.9
20260830151003 81 178 1.7 5.2 0.00 0.06 0.00 71 1008.7
20260830150504 81 185 1.7 5.2 0.00 0.06 0.00 72 1008.7
20260830150008 81 187 0.9 5.2 0.00 0.06 0.00 72 1008.7
20260830145503 80 177 0.9 4.3 0.00 0.06 0.00 72 1008.8
20260830145003 80 176 1.7 4.3 0.00 0.06 0.00 72 1008.7
20260830144508 80 177 1.7 4.3 0.00 0.06 0.00 72 1008.7
20260830144003 80 174 0.9 4.3 0.00 0.06 0.00 72 1008.8
20260830143503 79 181 0.9 2.6 0.00 0.06 0.00 73 1008.8
20260830143008 79 196 0.0 2.6 0.00 0.06 0.00 73 1008.9
20260830142504 79 188 0.0 2.6 0.00 0.06 0.00 73 1008.7
20260830142003 79 181 0.0 3.5 0.00 0.06 0.00 74 1008.8
20260830141003 78 200 0.9 2.6 0.00 0.06 0.00 74 1008.7
20260830140503 78 201 0.0 2.6 0.00 0.06 0.00 74 1008.7
20260830140008 78 199 0.0 1.7 0.00 0.06 0.00 73 1008.8
20260830135504 78 193 0.9 2.6 0.00 0.06 0.00 73 1008.8
20260830135004 78 196 0.0 2.6 0.00 0.06 0.00 73 1008.7
20260830134508 78 189 0.9 3.5 0.00 0.06 0.00 73 1008.7
20260830134003 78 183 0.9 3.5 0.00 0.06 0.00 73 1008.7
20260830133503 78 191 0.9 3.5 0.00 0.06 0.00 74 1008.7
20260830133008 78 199 0.0 3.5 0.00 0.06 0.00 74 1008.8
20260830132503 78 174 0.0 1.7 0.00 0.06 0.00 74 1008.8
20260830132004 77 175 0.0 0.9 0.00 0.06 0.00 74 1008.8
20260830131507 77 175 0.0 0.9 0.00 0.06 0.00 74 1008.9
20260830130504 77 186 0.0 1.7 0.00 0.06 0.00 74 1008.9
20260830130008 77 188 0.0 1.7 0.00 0.06 0.00 74 1008.9
20260830125503 77 203 0.0 1.7 0.00 0.06 0.00 74 1008.8
20260830124508 78 224 0.0 1.7 0.00 0.06 0.00 73 1008.9
20260830124003 78 220 0.0 1.7 0.00 0.06 0.00 73 1008.9
20260830123009 78 201 0.0 2.6 0.00 0.06 0.00 72 1008.8
20260830122503 78 188 0.0 2.6 0.00 0.06 0.00 72 1008.7
20260830122003 78 189 0.0 2.6 0.00 0.06 0.00 72 1008.6
20260830121508 78 177 0.9 1.7 0.00 0.06 0.00 72 1008.5
20260830121003 78 177 0.0 1.7 0.00 0.06 0.00 72 1008.6
20260830120503 78 184 0.0 1.7 0.00 0.06 0.00 72 1008.7
20260830120009 78 202 0.0 0.9 0.00 0.06 0.00 72 1008.8
20260830115503 78 193 0.0 0.9 0.00 0.06 0.00 72 1008.9
20260830115003 78 208 0.0 1.7 0.00 0.06 0.00 71 1008.7
20260830114003 78 186 0.9 3.5 0.00 0.06 0.00 70 1008.5
20260830113503 78 182 0.9 3.5 0.00 0.06 0.00 70 1008.5
20260830113008 78 175 0.9 3.5 0.00 0.06 0.00 71 1008.6
20260830112003 78 184 0.0 1.7 0.00 0.06 0.00 71 1008.9
20260830111508 78 167 0.0 1.7 0.00 0.06 0.00 71 1008.8
20260830111003 78 321 0.0 0.9 0.00 0.06 0.00 72 1009.0
20260830110503 78 321 0.0 0.9 0.00 0.06 0.00 71 1009.2
20260830110009 78 326 0.0 0.9 0.00 0.06 0.00 70 1009.1
20260830105504 79 334 0.0 0.9 0.00 0.06 0.00 71 1009.1
20260830105003 79 169 0.0 1.7 0.00 0.06 0.00 70 1009.1
20260830104508 79 169 0.0 1.7 0.00 0.06 0.00 70 1009.0
20260830104003 79 174 0.0 1.7 0.00 0.06 0.00 70 1009.0
20260830103503 79 190 0.0 2.6 0.00 0.06 0.00 70 1009.2
20260830103009 79 172 0.9 3.5 0.00 0.06 0.00 70 1009.3
20260830102503 79 162 0.0 3.5 0.00 0.06 0.00 70 1009.3
20260830102003 80 184 0.0 0.9 0.00 0.06 0.00 70 1009.4
20260830101508 80 173 0.0 1.7 0.00 0.06 0.00 70 1009.4
20260830101004 80 175 0.0 2.6 0.00 0.06 0.00 69 1009.3
20260830100503 80 184 0.9 2.6 0.00 0.06 0.00 69 1009.3
20260830100008 80 170 0.9 2.6 0.00 0.06 0.00 68 1009.3
20260830095503 80 160 0.0 2.6 0.00 0.06 0.00 69 1009.3
20260830095003 79 156 0.0 0.9 0.00 0.06 0.00 70 1009.3
20260830094508 79 162 0.0 2.6 0.00 0.06 0.00 71 1009.4
20260830094003 79 184 0.0 2.6 0.00 0.06 0.00 71 1009.4
20260830093504 79 204 0.0 1.7 0.00 0.06 0.00 71 1009.2
20260830093008 79 205 0.0 0.9 0.00 0.06 0.00 71 1009.3
20260830092503 80 189 0.9 3.5 0.00 0.06 0.00 70 1009.3
20260830092003 80 185 0.9 3.5 0.00 0.06 0.00 70 1009.0
20260830091003 79 199 0.9 3.5 0.00 0.06 0.00 70 1008.8
20260830090504 79 201 0.9 2.6 0.00 0.06 0.00 71 1008.7
20260830085504 79 192 0.9 4.3 0.00 0.06 0.00 71 1008.7
20260830085003 79 199 1.7 3.5 0.00 0.06 0.00 71 1008.7
20260830084508 79 194 1.7 5.2 0.00 0.06 0.00 71 1008.7
20260830084003 78 189 0.9 5.2 0.00 0.06 0.00 72 1008.7
20260830083503 78 189 0.9 3.5 0.00 0.06 0.00 72 1008.8
20260830083008 78 195 0.9 3.5 0.00 0.06 0.00 72 1008.8
20260830082504 78 193 1.7 3.5 0.00 0.06 0.00 72 1008.8
20260830082004 78 190 0.9 3.5 0.00 0.06 0.00 72 1008.7
20260830081507 78 194 0.9 3.5 0.00 0.06 0.00 72 1008.7
20260830080503 78 200 1.7 3.5 0.00 0.06 0.00 72 1008.6
20260830080008 78 197 0.9 2.6 0.00 0.06 0.00 72 1008.7
20260830075503 78 189 0.9 3.5 0.00 0.06 0.00 73 1008.7
20260830074508 78 192 0.9 3.5 0.00 0.06 0.00 72 1008.6
20260830073503 79 190 0.9 2.6 0.00 0.06 0.00 72 1008.5
20260830073008 79 197 0.9 5.2 0.00 0.06 0.00 72 1008.5
20260830072503 79 200 0.9 5.2 0.00 0.06 0.00 72 1008.4
20260830072003 79 197 1.7 5.2 0.00 0.06 0.00 71 1008.5
20260830071003 80 191 1.7 4.3 0.00 0.06 0.00 71 1008.6
20260830070504 80 191 1.7 4.3 0.00 0.06 0.00 71 1008.6